Location: Newark
(45.2500°N, 7.5833°E)
Time: 22:42:17
(UTC+00:00)

Vanguard 3 - Pass Details

Date: 29 January 2020
Orbit: 508 x 3263 km, 33.3° (Epoch: 19 February)

Event Time Altitude Azimuth Distance (km) Brightness Sun altitude
Rises 22:00:56 0° 278° (W) 7,083 12.3 -55.4°
Reaches altitude 10° 22:07:23 10° 267° (W) 5,781 11.7 -56.2°
Enters shadow 22:15:34 21° 241° (WSW) 4,336 10.8 -57.2°
Maximum altitude 22:18:55 23° 224° (SW) 3,955 - -57.5°
Drops below altitude 10° 22:27:22 10° 178° (S) 4,100 - -58.4°
Sets 22:30:58 0° 163° (SSE) 4,674 - -58.8°
